User: anonymous   Login
Location: Caltech
(34.1382°N, 118.1253°W)
Time: 11:43:17
(UTC-07:00)
Language:

OAO 1 Rocket - Orbit

View from above orbital plane
View from above orbital plane
View from above satellite
View from above satellite

Ground track
Ground track

The orbit data is extracted from the following two-line orbital elements,

1 02144U 66031B   16272.06309322  .00000102  00000-0  35981-4 0  9993
2 02144  35.0420 212.8441 0008991 228.9366 131.0547 14.42576226650238
Epoch (UTC): 28 September 2016 01:30:51
Eccentricity: 0.0008991
inclination: 35.0420°
perigee height: 743 km
apogee height: 756 km
right ascension of ascending node: 212.8441°
argument of perigee: 228.9366°
revolutions per day: 14.42576226
mean anomaly at epoch: 131.0547°
orbit number at epoch: 65023

The dashed part of the orbit path shows where the satellite is in the earth's shadow,  

DLR